When you browse on this site, cookies collect data to enhance your experience and personalize the content and advertising you see.
Visit our Privacy Policy to learn more. By continuing to use the site, you agree to this use of cookies and data.
  • en France
  • Liste des pays
  • À 7 jours
  • Température de l'eau
  • Carte météo
  • Widgets météo
  • user-avatar
    Se connecter

    Météo par heure à Erfurt

    Ce jour, 22 Septembre, Dimanche

    Heure Température Précipitation Vent Pression Humidité
    00:00 +12°C° 0 mm 1 m/s 745 mmHg 77%
    01:00 +13°C° 0 mm 2 m/s 745 mmHg 79%
    02:00 +12°C° 0 mm 1 m/s 744 mmHg 77%
    03:00 +12°C° 0 mm 1 m/s 744 mmHg 76%
    04:00 +12°C° 0 mm 1 m/s 744 mmHg 75%
    05:00 +12°C° 0 mm 1 m/s 744 mmHg 72%
    06:00 +12°C° 0 mm 1 m/s 743 mmHg 70%
    07:00 +13°C° 0 mm 1 m/s 744 mmHg 66%
    08:00 +15°C° 0 mm 2 m/s 743 mmHg 58%
    09:00 +18°C° 0 mm 2 m/s 743 mmHg 51%
    10:00 +20°C° 0 mm 2 m/s 743 mmHg 43%
    11:00 +23°C° 0 mm 2 m/s 742 mmHg 40%
    12:00 +24°C° 0 mm 2 m/s 742 mmHg 38%
    13:00 +26°C° 0 mm 2 m/s 742 mmHg 35%
    14:00 +26°C° 0 mm 2 m/s 741 mmHg 37%
    15:00 +26°C° 0 mm 2 m/s 741 mmHg 40%
    16:00 +25°C° 0 mm 3 m/s 741 mmHg 42%
    17:00 +23°C° 0 mm 2 m/s 741 mmHg 49%
    18:00 +20°C° 0 mm 2 m/s 741 mmHg 56%
    19:00 +17°C° 0 mm 2 m/s 741 mmHg 63%
    20:00 +17°C° 0 mm 2 m/s 741 mmHg 66%
    21:00 +16°C° 0 mm 1 m/s 740 mmHg 68%
    22:00 +15°C° 0 mm 1 m/s 740 mmHg 71%
    23:00 +15°C° 0 mm 1 m/s 740 mmHg 72%

    Demain, 23 Septembre, Lundi

    Heure Température Précipitation Vent Pression Humidité
    00:00 +14°C° 0 mm 1 m/s 740 mmHg 73%
    01:00 +14°C° 0 mm 1 m/s 740 mmHg 75%
    02:00 +14°C° 0 mm 1 m/s 740 mmHg 76%
    03:00 +14°C° 0 mm 1 m/s 740 mmHg 77%
    04:00 +12°C° 0 mm 0 m/s 740 mmHg 78%
    05:00 +14°C° 0 mm 1 m/s 741 mmHg 78%
    06:00 +14°C° 0 mm 1 m/s 741 mmHg 78%
    07:00 +14°C° 0 mm 1 m/s 741 mmHg 77%
    08:00 +16°C° 0 mm 2 m/s 741 mmHg 74%
    09:00 +17°C° 0 mm 2 m/s 742 mmHg 71%
    10:00 +19°C° 0 mm 3 m/s 742 mmHg 68%
    11:00 +18°C° 0.1 mm 4 m/s 742 mmHg 71%
    12:00 +18°C° 0.1 mm 4 m/s 742 mmHg 74%
    13:00 +18°C° 0.1 mm 4 m/s 743 mmHg 78%
    14:00 +17°C° 0.1 mm 4 m/s 743 mmHg 80%
    15:00 +17°C° 0.1 mm 4 m/s 743 mmHg 82%
    16:00 +15°C° 0.1 mm 4 m/s 743 mmHg 84%
    17:00 +14°C° 0.3 mm 4 m/s 743 mmHg 87%
    18:00 +14°C° 0.3 mm 3 m/s 743 mmHg 89%
    19:00 +14°C° 0.3 mm 3 m/s 743 mmHg 92%
    20:00 +13°C° 0.4 mm 3 m/s 744 mmHg 92%
    21:00 +14°C° 0.4 mm 2 m/s 744 mmHg 93%
    22:00 +14°C° 0.4 mm 2 m/s 744 mmHg 93%
    23:00 +14°C° 0.3 mm 2 m/s 744 mmHg 93%

    Après-demain, 24 Septembre, Mardi

    Heure Température Précipitation Vent Pression Humidité
    00:00 +14°C° 0.3 mm 2 m/s 744 mmHg 93%
    01:00 +14°C° 0.3 mm 2 m/s 744 mmHg 93%
    02:00 +14°C° 0.1 mm 2 m/s 744 mmHg 93%
    03:00 +14°C° 0.1 mm 2 m/s 744 mmHg 93%
    04:00 +14°C° 0.1 mm 1 m/s 744 mmHg 93%
    05:00 +13°C° 0 mm 1 m/s 744 mmHg 93%
    06:00 +13°C° 0 mm 1 m/s 743 mmHg 93%
    07:00 +13°C° 0 mm 1 m/s 743 mmHg 93%
    08:00 +15°C° 0 mm 2 m/s 743 mmHg 87%
    09:00 +16°C° 0 mm 2 m/s 743 mmHg 80%
    10:00 +18°C° 0 mm 2 m/s 743 mmHg 74%
    11:00 +18°C° 0 mm 2 m/s 743 mmHg 70%
    12:00 +19°C° 0 mm 2 m/s 742 mmHg 66%
    13:00 +20°C° 0 mm 2 m/s 742 mmHg 61%
    14:00 +20°C° 0 mm 3 m/s 741 mmHg 61%
    15:00 +20°C° 0 mm 3 m/s 741 mmHg 61%
    16:00 +19°C° 0 mm 3 m/s 740 mmHg 61%
    17:00 +18°C° 0 mm 3 m/s 740 mmHg 67%
    18:00 +17°C° 0 mm 2 m/s 740 mmHg 73%
    19:00 +15°C° 0 mm 2 m/s 739 mmHg 79%
    20:00 +15°C° 0 mm 2 m/s 739 mmHg 79%
    21:00 +15°C° 0 mm 2 m/s 739 mmHg 79%
    22:00 +15°C° 0 mm 2 m/s 739 mmHg 80%
    23:00 +15°C° 0.7 mm 2 m/s 739 mmHg 84%

    25 Septembre, Mercredi

    Heure Température Précipitation Vent Pression Humidité
    00:00 +15°C° 0.7 mm 2 m/s 738 mmHg 89%
    01:00 +14°C° 0.7 mm 2 m/s 738 mmHg 93%
    02:00 +14°C° 1 mm 2 m/s 738 mmHg 93%
    03:00 +13°C° 1 mm 3 m/s 737 mmHg 92%
    04:00 +13°C° 1 mm 3 m/s 737 mmHg 92%
    05:00 +13°C° 0.3 mm 4 m/s 737 mmHg 92%
    06:00 +13°C° 0.3 mm 4 m/s 737 mmHg 92%
    07:00 +13°C° 0.3 mm 4 m/s 737 mmHg 92%
    08:00 +14°C° 0.2 mm 4 m/s 737 mmHg 86%
    09:00 +15°C° 0.2 mm 5 m/s 738 mmHg 80%
    10:00 +16°C° 0.2 mm 5 m/s 738 mmHg 74%
    11:00 +16°C° 0.3 mm 5 m/s 738 mmHg 74%
    12:00 +16°C° 0.3 mm 6 m/s 738 mmHg 74%
    13:00 +16°C° 0.3 mm 6 m/s 738 mmHg 73%
    14:00 +16°C° 0.2 mm 5 m/s 738 mmHg 72%
    15:00 +16°C° 0.2 mm 5 m/s 738 mmHg 71%
    16:00 +16°C° 0.2 mm 5 m/s 738 mmHg 69%
    17:00 +15°C° 0.1 mm 4 m/s 738 mmHg 74%
    18:00 +14°C° 0.1 mm 4 m/s 739 mmHg 80%
    19:00 +13°C° 0.1 mm 4 m/s 739 mmHg 85%
    20:00 +13°C° 0.1 mm 4 m/s 739 mmHg 86%
    21:00 +13°C° 0.1 mm 4 m/s 740 mmHg 87%
    22:00 +13°C° 0.1 mm 3 m/s 740 mmHg 89%
    23:00 +13°C° 0 mm 4 m/s 740 mmHg 89%

    26 Septembre, Jeudi

    Heure Température Précipitation Vent Pression Humidité
    00:00 +12°C° 0 mm 4 m/s 740 mmHg 90%
    01:00 +12°C° 0 mm 4 m/s 740 mmHg 90%
    02:00 +12°C° 0.2 mm 4 m/s 740 mmHg 90%
    03:00 +13°C° 0.2 mm 4 m/s 740 mmHg 90%
    04:00 +13°C° 0.2 mm 5 m/s 740 mmHg 89%
    05:00 +13°C° 0.1 mm 5 m/s 740 mmHg 89%
    06:00 +13°C° 0.1 mm 5 m/s 741 mmHg 89%
    07:00 +13°C° 0.1 mm 4 m/s 741 mmHg 88%
    08:00 +14°C° 0 mm 5 m/s 741 mmHg 84%
    09:00 +15°C° 0 mm 5 m/s 742 mmHg 79%
    10:00 +17°C° 0 mm 5 m/s 742 mmHg 75%
    11:00 +17°C° 0.1 mm 5 m/s 742 mmHg 76%
    12:00 +16°C° 0.1 mm 5 m/s 742 mmHg 77%
    13:00 +16°C° 0.1 mm 5 m/s 742 mmHg 78%
    14:00 +16°C° 0.1 mm 5 m/s 742 mmHg 82%
    15:00 +15°C° 0.1 mm 4 m/s 742 mmHg 85%
    16:00 +15°C° 0.1 mm 4 m/s 742 mmHg 88%
    17:00 +16°C° 0 mm 3 m/s 742 mmHg 88%
    18:00 +16°C° 0 mm 3 m/s 742 mmHg 89%
    19:00 +16°C° 0 mm 3 m/s 743 mmHg 89%
    20:00 +16°C° 0 mm 3 m/s 743 mmHg 89%
    21:00 +16°C° 0 mm 3 m/s 743 mmHg 89%
    22:00 +15°C° 0 mm 4 m/s 743 mmHg 89%
    23:00 +15°C° 0 mm 4 m/s 743 mmHg 90%

    27 Septembre, Vendredi

    Heure Température Précipitation Vent Pression Humidité
    00:00 +14°C° 0 mm 4 m/s 743 mmHg 91%
    01:00 +14°C° 0 mm 4 m/s 743 mmHg 92%
    02:00 +14°C° 0 mm 4 m/s 743 mmHg 91%
    03:00 +14°C° 0 mm 4 m/s 742 mmHg 91%
    04:00 +14°C° 0 mm 4 m/s 742 mmHg 90%
    05:00 +14°C° 0 mm 4 m/s 742 mmHg 88%
    06:00 +14°C° 0 mm 4 m/s 742 mmHg 87%
    07:00 +14°C° 0 mm 4 m/s 742 mmHg 85%
    08:00 +16°C° 0 mm 5 m/s 742 mmHg 79%
    09:00 +17°C° 0 mm 6 m/s 742 mmHg 74%
    10:00 +18°C° 0 mm 7 m/s 742 mmHg 68%
    11:00 +18°C° 0 mm 7 m/s 742 mmHg 68%
    12:00 +19°C° 0 mm 6 m/s 741 mmHg 68%
    13:00 +20°C° 0 mm 6 m/s 741 mmHg 67%
    14:00 +19°C° 0 mm 6 m/s 741 mmHg 67%
    15:00 +19°C° 0 mm 6 m/s 740 mmHg 67%
    16:00 +19°C° 0 mm 6 m/s 740 mmHg 67%
    17:00 +17°C° 0.1 mm 5 m/s 740 mmHg 72%
    18:00 +17°C° 0.1 mm 4 m/s 740 mmHg 78%
    19:00 +15°C° 0.1 mm 4 m/s 741 mmHg 83%
    20:00 +14°C° 0 mm 4 m/s 741 mmHg 85%
    21:00 +14°C° 0 mm 4 m/s 741 mmHg 88%
    22:00 +13°C° 0 mm 4 m/s 741 mmHg 90%
    23:00 +13°C° 0 mm 4 m/s 741 mmHg 89%
    Voir plus